一网星座-0646星 (ONEWEB-0646)

导读

ONEWEB-0646是英国OneWeb公司的低轨宽带互联网卫星,于2023年3月9日由SpaceX猎鹰9号火箭发射,属于OneWeb全球卫星星座的组网卫星。 该卫星运行在约1200公里高度的低地球轨道,采用“弯管式”设计,依托全球布设的关口站提供卫星转发服务,助力OneWeb实现全球宽带互联网覆盖,可为全球各地用户提供低延迟的互联网接入服务,是OneWeb完成初期星座组网的重要组成部分。

Basic Information
目录编号:
55810
目录名称:
ONEWEB-0646
国际标识:
2023-029Q
轨道中心:
EARTH
卫星名称:
一网星座-0646星
卫星全名:
一网星座-0646星 (ONEWEB-0646)
卫星状态:
在轨 (已飞行1237 天)
发射日期:
2023-03-09 UTC
国别 :
英国 (GB)
星等 :
--
Orbit Information
数据来源 国际轨道数据 AOE轨道数据
星历时间 2026-07-27T13:45:43+0800
21小时前
查看轨道信息
2026-07-26T09:00:00+0800
2天前
查看轨道信息
半长轴 7563.908km 7563.913km
偏心率 0.00023 0.0002205
轨道倾角 87.918° 87.919°
近地点辐角 100.562° 102.496°
升交点赤经 297.001° 297.239°
平近点角 259.577° 327.209°
近地点 1184.031km 1184.108km
远地点 1187.511km 1187.444km
周期 109.114分钟 109.114分钟
每日圈数 13.197249 13.197238
Detailed Information
平衡模式:
三轴稳定
覆盖范围:
全球
运营商:
一网卫星公司
运营商所在国:
英国
制造商(研发单位):
一网卫星公司
制造商所在国:
英国
使用方式:
暂无
Satellite Introduction
OneWeb卫星网络由648颗重约125公斤的微型卫星组成,运行在1200公里的轨道上。 每颗卫星都能够提供至少每秒8千兆位的吞吐量,以使用其高吞吐量的Ku频段有效载荷为家庭和移动平台提供互联网接入。该卫星仍在工作。
2D Orbit Map
3D Orbit Map
Orbit Altitude Analysis Chart
Orbit Inclination Analysis Chart
Orbit Comprehensive Analysis Chart
View Comprehensive Chart